Volver al catálogo

STARLINK-11550

ActivoComunicacionesVLEO
NORAD 63052·PAYLOAD·🇺🇸 United States

Lanzado Feb 21, 2025 desde Cape Canaveral Space Force Station

Loading…

Próximos Pases (próximas 24 horas)

TLE

ActualizadoSource: CelesTrak SupGP

Época: Sep 14, 2026, 23:04 UTC

1 63052C 25035A   26257.96159722 -.00083779  00000+0 -65077-3 0  2574
2 63052  43.0003 314.2574 0001475 275.2511 344.9647 15.70878069    13

Sigue STARLINK-11550 en tiempo real con AllMySat

Download on the App Store